Find Starlink 30796

NORAD ID: 58189 Int'l Des: 2023-167 Owner: SPXS Country: US Constellation: starlink operational
LEOCIRCULAR

实时位置

正在加载3D地球...

关于 Starlink 30796

正在加载描述...

即将过境

Passes for default location (London). Set your location on the main map for personalized predictions.

高度历史

Loading altitude history...

两行轨道根数

1 58189U 23167Q 26125.21631340 .00000495 00000-0 27527-4 0 9991
2 58189 43.0035 183.8619 0001728 274.2802 85.7852 15.27581418139636
Epoch: May 5, 2026 • Age: 4 hours

当前状态

高度 484.0 km
速度 7.62 km/s
星下点 -7.79°S, 10.6°E
发射日期 Oct 30, 2023
运行时间 2.5 years
类型 internet

技术详情

分类 Payload
质量 730.00 kg
干质量 700.00 kg
总质量 730.00 kg
长度 0.30 m
直径 4.10 m
跨度 29.00 m
形状 Box + pan
制造商 SPXS
平台类型 Starlink V2M
阶段状态 In Orbit
所有者/国家 SPXS/US

Most Searched